Time,TemperatureF,DewpointF,PressureIn,WindDirection,WindDirectionDegrees,WindSpeedMPH,WindSpeedGustMPH,Humidity,HourlyPrecipIn,Conditions,Clouds,dailyrainin,SoftwareType,DateUTC
2013-10-21 00:03:00,44.8,41.0,29.76,West,269,5.0,-999.0,87,-99.99,,,0.00,weatherlink.com 1.10,2013-10-21 05:03:00,
2013-10-21 00:18:00,44.3,40.0,29.76,WNW,290,5.0,-999.0,85,-99.99,,,0.00,weatherlink.com 1.10,2013-10-21 05:18:00,
2013-10-21 00:33:00,43.7,40.0,29.77,NW,314,0.0,-999.0,85,-99.99,,,0.00,weatherlink.com 1.10,2013-10-21 05:33:00,
2013-10-21 00:48:00,42.4,38.0,29.77,NW,306,14.0,-999.0,85,-99.99,,,0.00,weatherlink.com 1.10,2013-10-21 05:48:00,
2013-10-21 01:03:00,41.6,38.0,29.78,West,268,17.0,-999.0,86,-99.99,,,0.00,weatherlink.com 1.10,2013-10-21 06:03:00,
2013-10-21 01:18:00,41.2,37.0,29.78,West,261,12.0,-999.0,86,-99.99,,,0.00,weatherlink.com 1.10,2013-10-21 06:18:00,
2013-10-21 01:33:00,40.6,36.0,29.80,West,279,2.0,-999.0,84,-99.99,,,0.00,weatherlink.com 1.10,2013-10-21 06:33:00,
2013-10-21 01:48:00,39.9,35.0,29.80,SE,139,1.0,-999.0,83,-99.99,,,0.00,weatherlink.com 1.10,2013-10-21 06:48:00,
2013-10-21 02:03:00,39.5,35.0,29.81,WNW,285,2.0,-999.0,83,-99.99,,,0.00,weatherlink.com 1.10,2013-10-21 07:03:00,
2013-10-21 02:18:00,38.9,35.0,29.82,WSW,246,4.0,-999.0,84,-99.99,,,0.00,weatherlink.com 1.10,2013-10-21 07:18:00,
2013-10-21 02:33:00,38.4,34.0,29.82,WSW,245,8.0,-999.0,83,-99.99,,,0.00,weatherlink.com 1.10,2013-10-21 07:33:00,
2013-10-21 02:48:00,37.9,33.0,29.83,West,261,0.0,-999.0,83,-99.99,,,0.00,weatherlink.com 1.10,2013-10-21 07:48:00,
2013-10-21 03:03:00,37.8,33.0,29.84,WSW,238,0.0,-999.0,83,-99.99,,,0.00,weatherlink.com 1.10,2013-10-21 08:03:00,
2013-10-21 03:18:00,37.7,33.0,29.84,West,274,4.0,-999.0,83,-99.99,,,0.00,weatherlink.com 1.10,2013-10-21 08:18:00,
2013-10-21 03:33:00,37.7,33.0,29.85,WSW,244,1.0,-999.0,84,-99.99,,,0.00,weatherlink.com 1.10,2013-10-21 08:33:00,
2013-10-21 03:48:00,37.5,33.0,29.85,West,277,0.0,-999.0,85,-99.99,,,0.00,weatherlink.com 1.10,2013-10-21 08:48:00,
2013-10-21 04:03:00,37.5,33.0,29.85,WSW,257,2.0,-999.0,85,-99.99,,,0.00,weatherlink.com 1.10,2013-10-21 09:03:00,
2013-10-21 04:18:00,37.6,33.0,29.86,WNW,292,1.0,-999.0,84,-99.99,,,0.00,weatherlink.com 1.10,2013-10-21 09:18:00,
2013-10-21 04:34:00,37.2,34.0,29.86,West,274,4.0,-999.0,87,-99.99,,,0.00,weatherlink.com 1.10,2013-10-21 09:34:00,
2013-10-21 04:49:00,36.7,34.0,29.86,NW,323,5.0,-999.0,89,-99.99,,,0.00,weatherlink.com 1.10,2013-10-21 09:49:00,
2013-10-21 05:04:00,36.5,34.0,29.86,West,281,2.0,-999.0,90,-99.99,,,0.00,weatherlink.com 1.10,2013-10-21 10:04:00,
2013-10-21 05:19:00,36.5,34.0,29.87,WNW,294,4.0,-999.0,90,-99.99,,,0.00,weatherlink.com 1.10,2013-10-21 10:19:00,
2013-10-21 05:34:00,36.5,34.0,29.87,West,271,1.0,-999.0,90,-99.99,,,0.00,weatherlink.com 1.10,2013-10-21 10:34:00,
2013-10-21 05:49:00,36.6,34.0,29.87,WSW,252,2.0,-999.0,90,-99.99,,,0.00,weatherlink.com 1.10,2013-10-21 10:49:00,
2013-10-21 06:04:00,36.6,33.0,29.88,West,281,7.0,-999.0,88,-99.99,,,0.00,weatherlink.com 1.10,2013-10-21 11:04:00,
2013-10-21 06:19:00,36.7,33.0,29.88,NW,321,6.0,-999.0,85,-99.99,,,0.00,weatherlink.com 1.10,2013-10-21 11:19:00,
2013-10-21 06:34:00,36.7,32.0,29.88,NNW,336,3.0,-999.0,83,-99.99,,,0.00,weatherlink.com 1.10,2013-10-21 11:34:00,
2013-10-21 06:49:00,36.7,32.0,29.88,NNW,327,2.0,-999.0,83,-99.99,,,0.00,weatherlink.com 1.10,2013-10-21 11:49:00,
2013-10-21 07:04:00,36.6,32.0,29.88,West,279,1.0,-999.0,83,-99.99,,,0.00,weatherlink.com 1.10,2013-10-21 12:04:00,
2013-10-21 07:19:00,36.3,32.0,29.88,West,271,2.0,-999.0,84,-99.99,,,0.00,weatherlink.com 1.10,2013-10-21 12:19:00,
2013-10-21 07:34:00,36.2,32.0,29.89,West,261,1.0,-999.0,85,-99.99,,,0.00,weatherlink.com 1.10,2013-10-21 12:34:00,
2013-10-21 07:49:00,36.1,32.0,29.89,WNW,296,11.0,-999.0,86,-99.99,,,0.00,weatherlink.com 1.10,2013-10-21 12:49:00,
2013-10-21 08:04:00,36.1,32.0,29.90,WSW,251,2.0,-999.0,86,-99.99,,,0.00,weatherlink.com 1.10,2013-10-21 13:04:00,
2013-10-21 08:19:00,36.9,33.0,29.90,WNW,291,2.0,-999.0,85,-99.99,,,0.00,weatherlink.com 1.10,2013-10-21 13:19:00,
2013-10-21 08:34:00,36.7,32.0,29.90,West,269,5.0,-999.0,84,-99.99,,,0.00,weatherlink.com 1.10,2013-10-21 13:34:00,
2013-10-21 08:49:00,36.7,32.0,29.91,North,355,0.0,-999.0,83,-99.99,,,0.00,weatherlink.com 1.10,2013-10-21 13:49:00,
2013-10-21 09:04:00,36.8,32.0,29.91,NW,309,0.0,-999.0,83,-99.99,,,0.00,weatherlink.com 1.10,2013-10-21 14:04:00,
2013-10-21 09:19:00,37.1,33.0,29.91,WNW,296,7.0,-999.0,84,-99.99,,,0.00,weatherlink.com 1.10,2013-10-21 14:19:00,
2013-10-21 09:34:00,37.3,32.0,29.91,West,276,5.0,-999.0,82,-99.99,,,0.00,weatherlink.com 1.10,2013-10-21 14:34:00,
2013-10-21 09:49:00,37.4,32.0,29.91,WNW,296,1.0,-999.0,82,-99.99,,,0.00,weatherlink.com 1.10,2013-10-21 14:49:00,
2013-10-21 10:04:00,36.2,32.0,29.91,North,9,3.0,-999.0,86,-99.99,,,0.00,weatherlink.com 1.10,2013-10-21 15:04:00,
2013-10-21 10:19:00,36.8,34.0,29.91,West,273,4.0,-999.0,88,-99.99,,,0.00,weatherlink.com 1.10,2013-10-21 15:19:00,
2013-10-21 10:34:00,36.4,33.0,29.91,West,267,3.0,-999.0,86,-99.99,,,0.00,weatherlink.com 1.10,2013-10-21 15:34:00,
2013-10-21 10:49:00,35.9,32.0,29.92,WSW,257,0.0,-999.0,85,-99.99,,,0.00,weatherlink.com 1.10,2013-10-21 15:49:00,
2013-10-21 11:04:00,35.3,32.0,29.92,WNW,282,12.0,-999.0,86,-99.99,,,0.00,weatherlink.com 1.10,2013-10-21 16:04:00,
2013-10-21 11:19:00,35.8,30.0,29.92,WNW,293,2.0,-999.0,79,-99.99,,,0.00,weatherlink.com 1.10,2013-10-21 16:19:00,
2013-10-21 11:34:00,37.0,28.0,29.93,West,259,9.0,-999.0,71,-99.99,,,0.00,weatherlink.com 1.10,2013-10-21 16:34:00,
2013-10-21 11:49:00,36.6,27.0,29.93,West,273,1.0,-999.0,69,-99.99,,,0.00,weatherlink.com 1.10,2013-10-21 16:49:00,
2013-10-21 12:04:00,36.3,26.0,29.93,West,267,2.0,-999.0,67,-99.99,,,0.00,weatherlink.com 1.10,2013-10-21 17:04:00,
2013-10-21 12:19:00,36.1,26.0,29.93,West,277,3.0,-999.0,68,-99.99,,,0.00,weatherlink.com 1.10,2013-10-21 17:19:00,
2013-10-21 12:34:00,35.5,26.0,29.93,West,269,2.0,-999.0,69,-99.99,,,0.00,weatherlink.com 1.10,2013-10-21 17:34:00,
2013-10-21 12:49:00,35.1,25.0,29.93,West,272,11.0,-999.0,67,-99.99,,,0.00,weatherlink.com 1.10,2013-10-21 17:49:00,
2013-10-21 13:04:00,35.6,24.0,29.92,West,279,4.0,-999.0,64,-99.99,,,0.00,weatherlink.com 1.10,2013-10-21 18:04:00,
2013-10-21 13:19:00,35.6,24.0,29.92,West,265,19.0,-999.0,63,-99.99,,,0.00,weatherlink.com 1.10,2013-10-21 18:19:00,
2013-10-21 13:34:00,35.3,24.0,29.92,West,261,4.0,-999.0,64,-99.99,,,0.00,weatherlink.com 1.10,2013-10-21 18:34:00,
2013-10-21 13:49:00,35.0,25.0,29.92,West,272,3.0,-999.0,66,-99.99,,,0.00,weatherlink.com 1.10,2013-10-21 18:49:00,
2013-10-21 14:04:00,35.6,24.0,29.92,West,271,5.0,-999.0,64,-99.99,,,0.00,weatherlink.com 1.10,2013-10-21 19:04:00,
2013-10-21 14:19:00,36.2,24.0,29.91,WNW,287,1.0,-999.0,61,-99.99,,,0.00,weatherlink.com 1.10,2013-10-21 19:19:00,
2013-10-21 14:35:00,36.0,22.0,29.91,NNW,329,2.0,-999.0,58,-99.99,,,0.00,weatherlink.com 1.10,2013-10-21 19:35:00,
2013-10-21 14:50:00,36.1,23.0,29.91,West,263,7.0,-999.0,60,-99.99,,,0.00,weatherlink.com 1.10,2013-10-21 19:50:00,
2013-10-21 15:05:00,36.1,22.0,29.91,West,281,10.0,-999.0,58,-99.99,,,0.00,weatherlink.com 1.10,2013-10-21 20:05:00,
2013-10-21 15:20:00,36.0,22.0,29.92,NW,323,10.0,-999.0,57,-99.99,,,0.00,weatherlink.com 1.10,2013-10-21 20:20:00,
2013-10-21 15:35:00,35.8,23.0,29.92,West,265,10.0,-999.0,59,-99.99,,,0.00,weatherlink.com 1.10,2013-10-21 20:35:00,
2013-10-21 15:50:00,35.9,23.0,29.92,West,261,7.0,-999.0,60,-99.99,,,0.00,weatherlink.com 1.10,2013-10-21 20:50:00,
2013-10-21 16:05:00,35.9,23.0,29.91,West,267,13.0,-999.0,59,-99.99,,,0.00,weatherlink.com 1.10,2013-10-21 21:05:00,
2013-10-21 16:20:00,35.9,23.0,29.91,WNW,292,7.0,-999.0,59,-99.99,,,0.00,weatherlink.com 1.10,2013-10-21 21:20:00,
2013-10-21 16:35:00,36.0,24.0,29.92,WSW,250,11.0,-999.0,62,-99.99,,,0.00,weatherlink.com 1.10,2013-10-21 21:35:00,
2013-10-21 16:50:00,35.8,24.0,29.92,West,270,3.0,-999.0,62,-99.99,,,0.00,weatherlink.com 1.10,2013-10-21 21:50:00,
2013-10-21 17:05:00,35.6,24.0,29.93,WNW,298,2.0,-999.0,64,-99.99,,,0.00,weatherlink.com 1.10,2013-10-21 22:05:00,
2013-10-21 17:20:00,35.5,25.0,29.93,West,271,2.0,-999.0,66,-99.99,,,0.00,weatherlink.com 1.10,2013-10-21 22:20:00,
2013-10-21 17:35:00,35.5,25.0,29.93,WNW,288,10.0,-999.0,65,-99.99,,,0.00,weatherlink.com 1.10,2013-10-21 22:35:00,
2013-10-21 17:50:00,35.5,25.0,29.94,WNW,293,6.0,-999.0,65,-99.99,,,0.00,weatherlink.com 1.10,2013-10-21 22:50:00,
2013-10-21 18:05:00,35.4,25.0,29.94,NW,305,5.0,-999.0,65,-99.99,,,0.00,weatherlink.com 1.10,2013-10-21 23:05:00,
2013-10-21 18:20:00,35.4,25.0,29.94,West,271,1.0,-999.0,65,-99.99,,,0.00,weatherlink.com 1.10,2013-10-21 23:20:00,
2013-10-21 18:35:00,35.5,24.0,29.94,WNW,295,0.0,-999.0,64,-99.99,,,0.00,weatherlink.com 1.10,2013-10-21 23:35:00,
2013-10-21 18:50:00,35.4,24.0,29.94,WSW,258,0.0,-999.0,64,-99.99,,,0.00,weatherlink.com 1.10,2013-10-21 23:50:00,
2013-10-21 19:05:00,35.3,24.0,29.94,WSW,237,3.0,-999.0,64,-99.99,,,0.00,weatherlink.com 1.10,2013-10-22 00:05:00,
2013-10-21 19:20:00,35.2,23.0,29.95,WSW,251,6.0,-999.0,62,-99.99,,,0.00,weatherlink.com 1.10,2013-10-22 00:20:00,
2013-10-21 19:35:00,35.1,23.0,29.95,West,263,0.0,-999.0,62,-99.99,,,0.00,weatherlink.com 1.10,2013-10-22 00:35:00,
2013-10-21 19:50:00,35.0,23.0,29.95,WNW,294,4.0,-999.0,61,-99.99,,,0.00,weatherlink.com 1.10,2013-10-22 00:50:00,
2013-10-21 20:05:00,34.3,22.0,29.95,West,270,6.0,-999.0,62,-99.99,,,0.00,weatherlink.com 1.10,2013-10-22 01:05:00,
2013-10-21 20:20:00,34.1,22.0,29.95,West,259,1.0,-999.0,62,-99.99,,,0.00,weatherlink.com 1.10,2013-10-22 01:20:00,
2013-10-21 20:35:00,33.9,22.0,29.95,NNW,342,6.0,-999.0,63,-99.99,,,0.00,weatherlink.com 1.10,2013-10-22 01:35:00,
2013-10-21 20:50:00,33.7,22.0,29.95,WNW,282,1.0,-999.0,63,-99.99,,,0.00,weatherlink.com 1.10,2013-10-22 01:50:00,
2013-10-21 21:05:00,33.2,22.0,29.95,West,277,0.0,-999.0,64,-99.99,,,0.00,weatherlink.com 1.10,2013-10-22 02:05:00,
2013-10-21 21:20:00,32.7,22.0,29.95,West,262,2.0,-999.0,66,-99.99,,,0.00,weatherlink.com 1.10,2013-10-22 02:20:00,
2013-10-21 21:35:00,32.6,23.0,29.94,WNW,288,2.0,-999.0,67,-99.99,,,0.00,weatherlink.com 1.10,2013-10-22 02:35:00,
2013-10-21 21:50:00,32.0,22.0,29.95,WNW,287,1.0,-999.0,68,-99.99,,,0.00,weatherlink.com 1.10,2013-10-22 02:50:00,
2013-10-21 22:05:00,31.7,23.0,29.95,WSW,254,4.0,-999.0,69,-99.99,,,0.00,weatherlink.com 1.10,2013-10-22 03:05:00,
2013-10-21 22:20:00,31.8,23.0,29.94,West,261,2.0,-999.0,69,-99.99,,,0.00,weatherlink.com 1.10,2013-10-22 03:20:00,
2013-10-21 22:35:00,31.4,23.0,29.94,West,260,8.0,-999.0,71,-99.99,,,0.00,weatherlink.com 1.10,2013-10-22 03:35:00,
2013-10-21 22:50:00,31.3,23.0,29.94,West,261,5.0,-999.0,71,-99.99,,,0.00,weatherlink.com 1.10,2013-10-22 03:50:00,
2013-10-21 23:05:00,31.6,23.0,29.94,WSW,251,9.0,-999.0,70,-99.99,,,0.00,weatherlink.com 1.10,2013-10-22 04:05:00,
2013-10-21 23:20:00,31.0,23.0,29.93,West,259,0.0,-999.0,72,-99.99,,,0.00,weatherlink.com 1.10,2013-10-22 04:20:00,
2013-10-21 23:35:00,30.5,23.0,29.93,WNW,299,4.0,-999.0,73,-99.99,,,0.00,weatherlink.com 1.10,2013-10-22 04:35:00,
2013-10-21 23:50:00,30.3,23.0,29.94,WSW,251,7.0,-999.0,74,-99.99,,,0.00,weatherlink.com 1.10,2013-10-22 04:50:00,